Airfield :
LOGIN :

Register | Disclaimer

   EN    FR    IT 

 










Legend :    VFR   Marginal VFR   IFR   Intensive IFR   Very Intensive IFR
Visi :
Ceiling :
>= 8 km
>= 3000ft
5 to 8 km
1000 to 3000 ft
1500m to 5 km
500 to 1000 ft
800 to 1500m
200 to 500 ft
< 800m
< 200 ft
Symbols :   Thunderstorms  Fog  Heavy snow  Heavy precipitations  Wind > 20 kt
SIGMETs :     Misc.  Thunderstorms  Icing  Turbulence  Mountain Waves  Volcanic Ashes






- Airport Elevation : 62 ft
- IATA code : TAN


GMTT - Tanger Ibn Batouta

CURRENT METAR :
  • 231730Z 07018KT CAVOK 21/13 Q1018 NOSIG

EXPIRED METARs :
  • 231700Z 06016KT CAVOK 22/13 Q1018 NOSIG
  • 231630Z 08016KT 9999 FEW040 23/13 Q1018 NOSIG
  • 231600Z 06016KT 9999 FEW040 23/13 Q1018 NOSIG
  • 231530Z 06017KT 9999 FEW040 23/13 Q1018 NOSIG
  • 231500Z 06017KT 9999 FEW040 24/13 Q1018 NOSIG

TAF TAF GMTT
Valid from the 23 at 18:00 until the 25 at 00:00 UTC


231700Z 2318/2424 07018KT CAVOK



MET'MAP, your aeronautical weather chart ! - Copyright ORBIFLY December 2007 - Disclaimer

ORBIFLY MET'MAP TEAM :

Programming & Development : Alexandra Zaïnal
Concept & original design : Baudouin d'Aumeries
Assistance for programming : Marc-Olivier Méhu
Technical & hardware support : Manuel Goepfert

Contact : metmap@orbifly.com




SOURCES & CREDITS :

   NOAA